{"data":{"norad_id":54827,"epoch":"2026-09-20T22:45:14.690016Z","epoch_age_seconds":54602,"freshness":"FRESH","line1":"1 54827U 22177H   26263.94808669 -.00000248  00000+0  49182-6 0  9998","line2":"2 54827  43.0015 113.5110 0000981 253.4598 106.6146 15.27575483206781","mean_motion":15.27575483,"eccentricity":9.81e-5,"inclination_deg":43.0015,"raan_deg":113.511,"arg_perigee_deg":253.4598,"mean_anomaly_deg":106.6146,"bstar":4.9182e-7,"rev_number":20678,"period_min":94.267027457916,"perigee_km":482.38953791309,"apogee_km":483.73570527884,"semimajor_km":6861.199621596,"source":"CELESTRAK","updated_at":"2026-09-21T09:00:33.133772Z"}}